Location: Bouchavesnes-Bergen
(49.9859°N, 2.9203°E)
Time: 11:37:55
(UTC+00:00)

Cosmos 2360 Rocket - Pass Details

Date: 09 March 2021
Orbit: 832 x 846 km, 71.0° (Epoch: 13 April)

Event Time Altitude Azimuth Distance (km) Brightness Sun altitude
Rises 02:07:15 0° 333° (NNW) 3,418 5.6 -37.1°
Reaches altitude 10° 02:09:52 10° 340° (NNW) 2,480 4.9 -36.8°
Enters shadow 02:12:21 24° 356° (N) 1,679 4.0 -36.5°
Exits shadow 02:22:39 - 128° (SE) 3,205 5.3 -35.3°
Sets 02:23:11 0° 129° (SE) 3,397 5.4 -35.3°
